Time,TemperatureF,DewpointF,PressureIn,WindDirection,WindDirectionDegrees,WindSpeedMPH,WindSpeedGustMPH,Humidity,HourlyPrecipIn,Conditions,Clouds,dailyrainin,SoftwareType,DateUTC
2013-02-05 00:02:00,22.0,17.0,29.98,NNW,340,3.0,3.0,81,0.00,,,0.00,,2013-02-05 06:02:00,
2013-02-05 00:11:00,22.0,17.0,29.98,NNW,340,3.0,3.0,81,0.00,,,0.00,,2013-02-05 06:11:00,
2013-02-05 00:32:00,20.0,17.0,29.97,NNW,340,0.0,0.0,88,0.00,,,0.00,,2013-02-05 06:32:00,
2013-02-05 00:42:00,20.0,17.0,29.97,NNW,340,0.0,0.0,88,0.00,,,0.00,,2013-02-05 06:42:00,
2013-02-05 00:52:00,20.0,17.0,29.97,NNW,340,0.0,0.0,88,0.00,,,0.00,,2013-02-05 06:52:00,
2013-02-05 01:01:00,20.0,17.0,29.97,NNW,340,0.0,0.0,88,0.00,,,0.00,,2013-02-05 07:01:00,
2013-02-05 01:11:00,20.0,17.0,29.97,NNW,340,0.0,0.0,88,0.00,,,0.00,,2013-02-05 07:11:00,
2013-02-05 01:22:00,20.0,17.0,29.97,NNW,340,0.0,0.0,88,0.00,,,0.00,,2013-02-05 07:22:00,
2013-02-05 01:32:00,19.0,15.0,29.95,NNW,340,0.0,0.0,84,0.00,,,0.00,,2013-02-05 07:32:00,
2013-02-05 01:42:00,19.0,15.0,29.95,NNW,340,0.0,0.0,84,0.00,,,0.00,,2013-02-05 07:42:00,
2013-02-05 01:52:00,19.0,15.0,29.95,NNW,340,0.0,0.0,84,0.00,,,0.00,,2013-02-05 07:52:00,
2013-02-05 02:01:00,19.0,15.0,29.95,NNW,340,0.0,0.0,84,0.00,,,0.00,,2013-02-05 08:01:00,
2013-02-05 02:32:00,20.0,15.0,29.95,NNW,340,0.0,0.0,81,0.00,,,0.00,,2013-02-05 08:32:00,
2013-02-05 02:42:00,20.0,15.0,29.95,NNW,340,0.0,0.0,81,0.00,,,0.00,,2013-02-05 08:42:00,
2013-02-05 02:52:00,20.0,15.0,29.95,NNW,340,0.0,0.0,81,0.00,,,0.00,,2013-02-05 08:52:00,
2013-02-05 03:02:00,20.0,15.0,29.95,NNW,340,0.0,0.0,81,0.00,,,0.00,,2013-02-05 09:02:00,
2013-02-05 03:11:00,20.0,15.0,29.95,NNW,340,0.0,0.0,81,0.00,,,0.00,,2013-02-05 09:11:00,
2013-02-05 03:21:00,20.0,15.0,29.95,NNW,340,0.0,0.0,81,0.00,,,0.00,,2013-02-05 09:21:00,
2013-02-05 03:32:00,20.0,17.0,29.94,NNW,340,0.0,0.0,88,0.00,,,0.00,,2013-02-05 09:32:00,
2013-02-05 03:42:00,20.0,17.0,29.94,NNW,340,0.0,0.0,88,0.00,,,0.00,,2013-02-05 09:42:00,
2013-02-05 03:52:00,20.0,17.0,29.94,NNW,340,0.0,0.0,88,0.00,,,0.00,,2013-02-05 09:52:00,
2013-02-05 04:02:00,20.0,17.0,29.94,NNW,340,0.0,0.0,88,0.00,,,0.00,,2013-02-05 10:02:00,
2013-02-05 04:11:00,20.0,17.0,29.94,NNW,340,0.0,0.0,88,0.00,,,0.00,,2013-02-05 10:11:00,
2013-02-05 04:21:00,20.0,17.0,29.94,NNW,340,0.0,0.0,88,0.00,,,0.00,,2013-02-05 10:21:00,
2013-02-05 04:32:00,21.0,18.0,29.92,South,190,3.0,3.0,87,0.00,,,0.00,,2013-02-05 10:32:00,
2013-02-05 04:42:00,21.0,18.0,29.92,South,190,3.0,3.0,87,0.00,,,0.00,,2013-02-05 10:42:00,
2013-02-05 04:52:00,21.0,18.0,29.92,South,190,3.0,3.0,87,0.00,,,0.00,,2013-02-05 10:52:00,
2013-02-05 05:01:00,21.0,18.0,29.92,South,190,3.0,3.0,87,0.00,,,0.00,,2013-02-05 11:01:00,
2013-02-05 05:11:00,21.0,18.0,29.92,South,190,3.0,3.0,87,0.00,,,0.00,,2013-02-05 11:11:00,
2013-02-05 05:22:00,21.0,18.0,29.92,South,190,3.0,3.0,87,0.00,,,0.00,,2013-02-05 11:22:00,
2013-02-05 05:32:00,22.0,19.0,29.92,SW,230,3.0,3.0,88,0.00,,,0.00,,2013-02-05 11:32:00,
2013-02-05 05:42:00,22.0,19.0,29.92,SW,230,3.0,3.0,88,0.00,,,0.00,,2013-02-05 11:42:00,
2013-02-05 05:52:00,22.0,19.0,29.92,SW,230,3.0,3.0,88,0.00,,,0.00,,2013-02-05 11:52:00,
2013-02-05 06:01:00,22.0,19.0,29.92,SW,230,3.0,3.0,88,0.00,,,0.00,,2013-02-05 12:01:00,
2013-02-05 06:12:00,22.0,19.0,29.92,SW,230,3.0,3.0,88,0.00,,,0.00,,2013-02-05 12:12:00,
2013-02-05 06:22:00,22.0,19.0,29.92,SW,230,3.0,3.0,88,0.00,,,0.00,,2013-02-05 12:22:00,
2013-02-05 06:32:00,23.0,20.0,29.91,SW,230,0.0,0.0,87,0.00,,,0.00,,2013-02-05 12:32:00,
2013-02-05 06:42:00,23.0,20.0,29.91,SW,230,0.0,0.0,87,0.00,,,0.00,,2013-02-05 12:42:00,
2013-02-05 06:52:00,23.0,20.0,29.91,SW,230,0.0,0.0,87,0.00,,,0.00,,2013-02-05 12:52:00,
2013-02-05 07:01:00,23.0,20.0,29.91,SW,230,0.0,0.0,87,0.00,,,0.00,,2013-02-05 13:01:00,
2013-02-05 07:12:00,23.0,20.0,29.91,SW,230,0.0,0.0,87,0.00,,,0.00,,2013-02-05 13:12:00,
2013-02-05 07:22:00,23.0,20.0,29.91,SW,230,0.0,0.0,87,0.00,,,0.00,,2013-02-05 13:22:00,
2013-02-05 07:32:00,24.0,20.0,29.90,SSW,200,9.0,9.0,83,0.00,,,0.00,,2013-02-05 13:32:00,
2013-02-05 07:42:00,24.0,20.0,29.90,SSW,200,9.0,9.0,83,0.00,,,0.00,,2013-02-05 13:42:00,
2013-02-05 07:52:00,24.0,20.0,29.90,SSW,200,9.0,9.0,83,0.00,,,0.00,,2013-02-05 13:52:00,
2013-02-05 08:01:00,24.0,20.0,29.90,SSW,200,9.0,9.0,83,0.00,,,0.00,,2013-02-05 14:01:00,
2013-02-05 08:12:00,24.0,20.0,29.90,SSW,200,9.0,9.0,83,0.00,,,0.00,,2013-02-05 14:12:00,
2013-02-05 08:21:00,24.0,20.0,29.90,SSW,200,9.0,9.0,83,0.00,,,0.00,,2013-02-05 14:21:00,
2013-02-05 08:32:00,25.0,22.0,29.90,South,190,6.0,6.0,87,0.00,,,0.00,,2013-02-05 14:32:00,
2013-02-05 08:42:00,25.0,22.0,29.90,South,190,6.0,6.0,87,0.00,,,0.00,,2013-02-05 14:42:00,
2013-02-05 08:52:00,25.0,22.0,29.90,South,190,6.0,6.0,87,0.00,,,0.00,,2013-02-05 14:52:00,
2013-02-05 09:02:00,25.0,22.0,29.90,South,190,6.0,6.0,87,0.00,,,0.00,,2013-02-05 15:02:00,
2013-02-05 09:11:00,25.0,22.0,29.90,South,190,6.0,6.0,87,0.00,,,0.00,,2013-02-05 15:11:00,
2013-02-05 09:21:00,25.0,22.0,29.90,South,190,6.0,6.0,87,0.00,,,0.00,,2013-02-05 15:21:00,
2013-02-05 09:32:00,27.0,23.0,29.88,SSW,200,13.0,13.0,84,0.00,,,0.00,,2013-02-05 15:32:00,
2013-02-05 09:42:00,27.0,23.0,29.88,SSW,200,13.0,13.0,84,0.00,,,0.00,,2013-02-05 15:42:00,
2013-02-05 09:52:00,27.0,23.0,29.88,SSW,200,13.0,13.0,84,0.00,,,0.00,,2013-02-05 15:52:00,
2013-02-05 10:01:00,27.0,23.0,29.88,SSW,200,13.0,13.0,84,0.00,,,0.00,,2013-02-05 16:01:00,
2013-02-05 10:11:00,27.0,23.0,29.88,SSW,200,13.0,13.0,84,0.00,,,0.00,,2013-02-05 16:11:00,
2013-02-05 10:22:00,27.0,23.0,29.88,SSW,200,13.0,13.0,84,0.00,,,0.00,,2013-02-05 16:22:00,
2013-02-05 10:32:00,31.0,24.0,29.88,SW,230,15.0,15.0,75,0.00,,,0.00,,2013-02-05 16:32:00,
2013-02-05 10:42:00,31.0,24.0,29.88,SW,230,15.0,15.0,75,0.00,,,0.00,,2013-02-05 16:42:00,
2013-02-05 10:52:00,31.0,24.0,29.88,SW,230,15.0,15.0,75,0.00,,,0.00,,2013-02-05 16:52:00,
2013-02-05 11:01:00,31.0,24.0,29.88,SW,230,15.0,15.0,75,0.00,,,0.00,,2013-02-05 17:01:00,
2013-02-05 11:11:00,31.0,24.0,29.88,SW,230,15.0,15.0,75,0.00,,,0.00,,2013-02-05 17:11:00,
2013-02-05 11:22:00,31.0,24.0,29.88,SW,230,15.0,15.0,75,0.00,,,0.00,,2013-02-05 17:22:00,
2013-02-05 11:32:00,33.0,25.0,29.87,SSW,210,15.0,15.0,71,0.00,,,0.00,,2013-02-05 17:32:00,
2013-02-05 11:42:00,33.0,25.0,29.87,SSW,210,15.0,15.0,71,0.00,,,0.00,,2013-02-05 17:42:00,
2013-02-05 11:52:00,33.0,25.0,29.87,SSW,210,15.0,15.0,71,0.00,,,0.00,,2013-02-05 17:52:00,
2013-02-05 12:02:00,35.0,25.0,29.85,SW,230,16.0,16.0,66,0.00,,,0.00,,2013-02-05 18:02:00,
2013-02-05 12:11:00,35.0,25.0,29.85,SW,230,16.0,16.0,66,0.00,,,0.00,,2013-02-05 18:11:00,
2013-02-05 12:22:00,35.0,25.0,29.85,SW,230,16.0,16.0,66,0.00,,,0.00,,2013-02-05 18:22:00,
2013-02-05 12:32:00,37.0,26.0,29.84,WSW,240,13.0,13.0,64,0.00,,,0.00,,2013-02-05 18:32:00,
2013-02-05 12:42:00,37.0,26.0,29.84,WSW,240,13.0,13.0,64,0.00,,,0.00,,2013-02-05 18:42:00,
2013-02-05 12:52:00,37.0,26.0,29.84,WSW,240,13.0,13.0,64,0.00,,,0.00,,2013-02-05 18:52:00,
2013-02-05 13:02:00,37.0,26.0,29.84,WSW,240,13.0,13.0,64,0.00,,,0.00,,2013-02-05 19:02:00,
2013-02-05 13:11:00,37.0,26.0,29.84,WSW,240,13.0,13.0,64,0.00,,,0.00,,2013-02-05 19:11:00,
2013-02-05 13:21:00,37.0,26.0,29.84,WSW,240,13.0,13.0,64,0.00,,,0.00,,2013-02-05 19:21:00,
2013-02-05 13:32:00,40.0,28.0,29.84,West,280,14.0,25.0,62,0.00,,,0.00,,2013-02-05 19:32:00,
2013-02-05 13:42:00,40.0,28.0,29.84,West,280,14.0,25.0,62,0.00,,,0.00,,2013-02-05 19:42:00,
2013-02-05 13:52:00,40.0,28.0,29.84,West,280,14.0,25.0,62,0.00,,,0.00,,2013-02-05 19:52:00,
2013-02-05 14:01:00,40.0,28.0,29.84,West,280,14.0,25.0,62,0.00,,,0.00,,2013-02-05 20:01:00,
2013-02-05 14:11:00,40.0,28.0,29.84,West,280,14.0,25.0,62,0.00,,,0.00,,2013-02-05 20:11:00,
2013-02-05 14:21:00,40.0,28.0,29.84,West,280,14.0,25.0,62,0.00,,,0.00,,2013-02-05 20:21:00,
2013-02-05 14:32:00,41.0,28.0,29.84,WNW,290,14.0,25.0,59,0.00,,,0.00,,2013-02-05 20:32:00,
2013-02-05 14:42:00,41.0,28.0,29.84,WNW,290,14.0,25.0,59,0.00,,,0.00,,2013-02-05 20:42:00,
2013-02-05 14:52:00,41.0,28.0,29.84,WNW,290,14.0,25.0,59,0.00,,,0.00,,2013-02-05 20:52:00,
2013-02-05 15:02:00,41.0,29.0,29.86,WNW,290,14.0,25.0,61,0.00,,,0.00,,2013-02-05 21:02:00,
2013-02-05 15:11:00,41.0,29.0,29.86,WNW,290,14.0,25.0,61,0.00,,,0.00,,2013-02-05 21:11:00,
2013-02-05 15:22:00,41.0,29.0,29.86,WNW,290,14.0,25.0,61,0.00,,,0.00,,2013-02-05 21:22:00,
2013-02-05 15:32:00,41.0,29.0,29.87,WNW,290,14.0,28.0,61,0.00,,,0.00,,2013-02-05 21:32:00,
2013-02-05 15:42:00,41.0,29.0,29.87,WNW,290,14.0,28.0,61,0.00,,,0.00,,2013-02-05 21:42:00,
2013-02-05 15:52:00,41.0,29.0,29.87,WNW,290,14.0,28.0,61,0.00,,,0.00,,2013-02-05 21:52:00,
2013-02-05 16:01:00,39.0,28.0,29.90,WNW,300,13.0,28.0,64,0.00,,,0.00,,2013-02-05 22:01:00,
2013-02-05 16:11:00,39.0,28.0,29.90,WNW,300,13.0,28.0,64,0.00,,,0.00,,2013-02-05 22:11:00,
2013-02-05 16:21:00,39.0,28.0,29.90,WNW,300,13.0,28.0,64,0.00,,,0.00,,2013-02-05 22:21:00,
2013-02-05 16:32:00,39.0,28.0,29.90,WNW,290,10.0,24.0,64,0.00,,,0.00,,2013-02-05 22:32:00,
2013-02-05 16:42:00,39.0,28.0,29.90,WNW,290,10.0,24.0,64,0.00,,,0.00,,2013-02-05 22:42:00,
2013-02-05 16:52:00,39.0,28.0,29.90,WNW,290,10.0,24.0,64,0.00,,,0.00,,2013-02-05 22:52:00,
2013-02-05 17:02:00,39.0,28.0,29.90,WNW,290,10.0,24.0,64,0.00,,,0.00,,2013-02-05 23:02:00,
2013-02-05 17:11:00,39.0,28.0,29.90,WNW,290,10.0,24.0,64,0.00,,,0.00,,2013-02-05 23:11:00,
2013-02-05 17:22:00,39.0,28.0,29.90,WNW,290,10.0,24.0,64,0.00,,,0.00,,2013-02-05 23:22:00,
2013-02-05 17:32:00,37.0,29.0,29.93,WNW,300,12.0,24.0,72,0.00,,,0.00,,2013-02-05 23:32:00,
2013-02-05 17:42:00,37.0,29.0,29.93,WNW,300,12.0,24.0,72,0.00,,,0.00,,2013-02-05 23:42:00,
2013-02-05 17:52:00,37.0,29.0,29.93,WNW,300,12.0,24.0,72,0.00,,,0.00,,2013-02-05 23:52:00,
2013-02-05 18:02:00,37.0,29.0,29.93,WNW,300,12.0,24.0,72,0.00,,,0.00,,2013-02-06 00:02:00,
2013-02-05 18:32:00,36.0,28.0,29.98,NW,320,12.0,21.0,72,0.00,,,0.00,,2013-02-06 00:32:00,
2013-02-05 18:42:00,36.0,28.0,29.98,NW,320,12.0,21.0,72,0.00,,,0.00,,2013-02-06 00:42:00,
2013-02-05 18:52:00,36.0,28.0,29.98,NW,320,12.0,21.0,72,0.00,,,0.00,,2013-02-06 00:52:00,
2013-02-05 19:02:00,36.0,28.0,29.98,NW,320,12.0,21.0,72,0.00,,,0.00,,2013-02-06 01:02:00,
2013-02-05 19:11:00,36.0,28.0,29.98,NW,320,12.0,21.0,72,0.00,,,0.00,,2013-02-06 01:11:00,
2013-02-05 19:22:00,36.0,28.0,29.98,NW,320,12.0,21.0,72,0.00,,,0.00,,2013-02-06 01:22:00,
2013-02-05 19:32:00,35.0,28.0,30.01,NW,320,12.0,21.0,75,0.00,,,0.00,,2013-02-06 01:32:00,
2013-02-05 19:42:00,35.0,28.0,30.01,NW,320,12.0,21.0,75,0.00,,,0.00,,2013-02-06 01:42:00,
2013-02-05 19:53:00,35.0,28.0,30.01,NW,320,12.0,21.0,75,0.00,,,0.00,,2013-02-06 01:53:00,
2013-02-05 20:01:00,35.0,27.0,30.02,NNW,330,6.0,21.0,71,0.00,,,0.00,,2013-02-06 02:01:00,
2013-02-05 20:11:00,35.0,27.0,30.02,NNW,330,6.0,21.0,71,0.00,,,0.00,,2013-02-06 02:11:00,
2013-02-05 20:22:00,35.0,27.0,30.02,NNW,330,6.0,21.0,71,0.00,,,0.00,,2013-02-06 02:22:00,
2013-02-05 20:32:00,35.0,27.0,30.03,WNW,300,5.0,6.0,71,0.00,,,0.00,,2013-02-06 02:32:00,
2013-02-05 20:42:00,35.0,27.0,30.03,WNW,300,5.0,6.0,71,0.00,,,0.00,,2013-02-06 02:42:00,
2013-02-05 20:52:00,35.0,27.0,30.03,WNW,300,5.0,6.0,71,0.00,,,0.00,,2013-02-06 02:52:00,
2013-02-05 21:02:00,35.0,27.0,30.03,WNW,300,5.0,5.0,71,0.00,,,0.00,,2013-02-06 03:02:00,
2013-02-05 21:12:00,35.0,27.0,30.03,WNW,300,5.0,5.0,71,0.00,,,0.00,,2013-02-06 03:12:00,
2013-02-05 21:22:00,35.0,27.0,30.03,WNW,300,5.0,5.0,71,0.00,,,0.00,,2013-02-06 03:22:00,
2013-02-05 21:32:00,34.0,28.0,30.04,West,280,3.0,3.0,78,0.00,,,0.00,,2013-02-06 03:32:00,
2013-02-05 21:42:00,34.0,28.0,30.04,West,280,3.0,3.0,78,0.00,,,0.00,,2013-02-06 03:42:00,
2013-02-05 21:53:00,34.0,28.0,30.04,West,280,3.0,3.0,78,0.00,,,0.00,,2013-02-06 03:53:00,
2013-02-05 22:02:00,35.0,27.0,30.06,NW,310,8.0,8.0,71,0.00,,,0.00,,2013-02-06 04:02:00,
2013-02-05 22:11:00,35.0,27.0,30.06,NW,310,8.0,8.0,71,0.00,,,0.00,,2013-02-06 04:11:00,
2013-02-05 22:21:00,35.0,27.0,30.06,NW,310,8.0,8.0,71,0.00,,,0.00,,2013-02-06 04:21:00,
2013-02-05 22:32:00,36.0,26.0,30.06,NW,320,8.0,8.0,66,0.00,,,0.00,,2013-02-06 04:32:00,
2013-02-05 22:42:00,36.0,26.0,30.06,NW,320,8.0,8.0,66,0.00,,,0.00,,2013-02-06 04:42:00,
2013-02-05 22:52:00,36.0,26.0,30.06,NW,320,8.0,8.0,66,0.00,,,0.00,,2013-02-06 04:52:00,
2013-02-05 23:02:00,36.0,26.0,30.06,NW,320,8.0,8.0,66,0.00,,,0.00,,2013-02-06 05:02:00,
2013-02-05 23:12:00,36.0,26.0,30.06,NW,320,8.0,8.0,66,0.00,,,0.00,,2013-02-06 05:12:00,
2013-02-05 23:22:00,36.0,26.0,30.06,NW,320,8.0,8.0,66,0.00,,,0.00,,2013-02-06 05:22:00,
2013-02-05 23:32:00,36.0,26.0,30.06,NW,320,8.0,8.0,66,0.00,,,0.00,,2013-02-06 05:32:00,
2013-02-05 23:41:00,36.0,26.0,30.06,NW,320,8.0,8.0,66,0.00,,,0.00,,2013-02-06 05:41:00,